N5CSU Weather Reports


Display with metric or nautical units.
time (UTC)temp
F
wind
direction
speed
MPH
gust
MPH
rain 1hr
in
rain 24hr
in
rain mn
in
humidity
%
barometer
mb
20260831033506 89 204 0.0 0.0 0.00 0.00 0.00 48 1014.1
20260831033001 89 204 0.0 0.0 0.00 0.00 0.00 49 1014.1
20260831032501 89 203 0.0 0.0 0.00 0.00 0.00 48 1014.1
20260831031956 89 186 0.0 0.0 0.00 0.00 0.00 49 1014.1
20260831031456 89 199 0.0 0.0 0.00 0.00 0.00 48 1014.1
20260831030955 89 199 0.0 0.0 0.00 0.00 0.00 48 1014.0
20260831030454 89 199 0.0 0.0 0.00 0.00 0.00 48 1014.2
20260831025953 89 199 0.0 0.0 0.00 0.00 0.00 47 1014.2
20260831025452 90 201 0.0 0.0 0.00 0.00 0.00 47 1014.0
20260831024948 90 191 0.0 0.0 0.00 0.00 0.00 47 1014.0
20260831024443 90 204 0.0 0.0 0.00 0.00 0.00 46 1013.9
20260831023942 90 202 0.0 0.0 0.00 0.00 0.00 46 1013.8
20260831023441 91 199 0.0 0.0 0.00 0.00 0.00 46 1013.6
20260831022936 91 201 0.0 0.0 0.00 0.00 0.00 45 1013.7
20260831022435 91 208 0.0 0.0 0.00 0.00 0.00 45 1013.6
20260831021930 91 192 0.0 0.0 0.00 0.00 0.00 45 1013.6
20260831021429 91 196 0.0 0.0 0.00 0.00 0.00 45 1013.5
20260831020926 91 204 0.0 0.0 0.00 0.00 0.00 44 1013.4
20260831020425 91 194 0.0 0.0 0.00 0.00 0.00 44 1013.2
20260831015920 92 197 0.0 0.0 0.00 0.00 0.00 44 1013.1
20260831015416 92 209 0.0 0.0 0.00 0.00 0.00 44 1013.2
20260831014911 92 206 0.0 0.0 0.00 0.00 0.00 43 1013.0
20260831014411 92 205 0.0 0.0 0.00 0.00 0.00 43 1013.2
20260831013906 92 193 0.0 0.0 0.00 0.00 0.00 43 1013.2
20260831013402 92 202 0.0 0.0 0.00 0.00 0.00 43 1013.0
20260831012857 92 201 0.0 0.0 0.00 0.00 0.00 43 1013.1
20260831012352 92 204 0.0 0.0 0.00 0.00 0.00 43 1012.9
20260831011851 93 191 0.0 0.0 0.00 0.00 0.00 43 1013.0
20260831011346 93 199 0.0 0.0 0.00 0.00 0.00 43 1013.1
20260831010837 93 197 0.0 0.0 0.00 0.00 0.00 42 1012.8
20260831010336 93 200 0.0 0.0 0.00 0.00 0.00 41 1012.8
20260831005832 94 197 0.0 0.0 0.00 0.00 0.00 41 1012.6
20260831005328 94 219 0.0 0.0 0.00 0.00 0.00 41 1012.8
20260831004827 94 203 1.0 1.0 0.00 0.00 0.00 40 1012.8
20260831004324 95 277 0.0 1.0 0.00 0.00 0.00 40 1012.7
20260831003819 95 202 0.0 0.0 0.00 0.00 0.00 40 1012.6
20260831003316 95 196 0.0 0.0 0.00 0.00 0.00 40 1012.6
20260831002815 95 212 0.0 0.0 0.00 0.00 0.00 40 1012.5
20260831002314 95 204 0.0 0.0 0.00 0.00 0.00 40 1012.8
20260831001810 95 196 0.0 0.0 0.00 0.00 0.00 40 1012.9
20260831001305 96 198 0.0 0.0 0.00 0.00 0.00 40 1012.8
20260831000803 96 203 0.0 1.0 0.00 0.00 0.00 40 1012.8
20260831000303 96 225 0.0 0.0 0.00 0.00 0.00 40 1012.9
20260830235800 97 209 0.0 1.0 0.00 0.00 0.00 40 1012.9
20260830235255 97 202 0.0 0.0 0.00 0.00 0.00 39 1012.8
20260830234750 97 199 0.0 0.0 0.00 0.00 0.00 39 1012.8
20260830234247 97 231 0.0 1.0 0.00 0.00 0.00 39 1012.7
20260830233742 97 190 0.0 1.0 0.00 0.00 0.00 39 1012.8
20260830233238 97 187 0.0 0.0 0.00 0.00 0.00 39 1012.9
20260830232733 98 193 0.0 0.0 0.00 0.00 0.00 39 1013.1
20260830232229 98 185 0.0 0.0 0.00 0.00 0.00 38 1012.9
20260830231725 98 202 0.0 0.0 0.00 0.00 0.00 37 1012.9
20260830231224 98 190 0.0 1.0 0.00 0.00 0.00 36 1013.0
20260830230719 98 218 0.0 0.0 0.00 0.00 0.00 37 1012.8
20260830230215 99 206 0.0 0.0 0.00 0.00 0.00 37 1013.0
20260830225709 99 208 0.0 1.0 0.00 0.00 0.00 36 1013.0
20260830225209 99 212 0.0 0.0 0.00 0.00 0.00 36 1013.3
20260830224708 99 196 0.0 0.0 0.00 0.00 0.00 36 1013.1
20260830224204 99 191 0.0 0.0 0.00 0.00 0.00 36 1013.1
20260830223701 100 207 0.0 0.0 0.00 0.00 0.00 35 1013.1
20260830223156 101 257 1.0 1.0 0.00 0.00 0.00 34 1013.1
20260830222651 101 216 1.0 1.0 0.00 0.00 0.00 34 1013.1
20260830222146 101 197 0.0 0.0 0.00 0.00 0.00 34 1013.2
20260830221642 102 187 0.0 0.0 0.00 0.00 0.00 34 1013.0
20260830221138 101 183 0.0 1.0 0.00 0.00 0.00 34 1012.9
20260830220633 101 257 1.0 1.0 0.00 0.00 0.00 33 1013.1
20260830220132 101 224 1.0 1.0 0.00 0.00 0.00 34 1013.1
20260830215631 101 179 1.0 2.0 0.00 0.00 0.00 33 1013.1
20260830215126 100 198 0.0 1.0 0.00 0.00 0.00 35 1013.0
20260830214621 100 211 0.0 0.0 0.00 0.00 0.00 33 1013.2
20260830214116 100 185 0.0 0.0 0.00 0.00 0.00 32 1013.2
20260830213615 100 216 0.0 0.0 0.00 0.00 0.00 33 1013.2
20260830213111 100 197 0.0 0.0 0.00 0.00 0.00 33 1013.3
20260830212606 100 202 0.0 1.0 0.00 0.00 0.00 34 1013.5
20260830212101 100 178 1.0 1.0 0.00 0.00 0.00 34 1013.6
20260830211555 100 200 1.0 1.0 0.00 0.00 0.00 34 1013.3
20260830211049 100 185 1.0 2.0 0.00 0.00 0.00 36 1013.6
20260830210544 100 213 0.0 1.0 0.00 0.00 0.00 34 1013.6
20260830210038 99 196 0.0 1.0 0.00 0.00 0.00 35 1013.6
20260830205536 98 184 1.0 2.0 0.00 0.00 0.00 37 1013.5
20260830205032 100 199 1.0 1.0 0.00 0.00 0.00 35 1013.9
20260830204531 101 236 0.0 1.0 0.00 0.00 0.00 35 1013.9
20260830204030 100 183 0.0 0.0 0.00 0.00 0.00 35 1013.9
20260830203527 100 221 0.0 0.0 0.00 0.00 0.00 34 1013.9
20260830203022 100 210 0.0 0.0 0.00 0.00 0.00 36 1014.0
20260830202521 99 154 0.0 0.0 0.00 0.00 0.00 36 1014.2
20260830202017 99 209 0.0 0.0 0.00 0.00 0.00 36 1014.1
20260830201516 99 189 0.0 0.0 0.00 0.00 0.00 36 1014.3
20260830201012 100 192 0.0 1.0 0.00 0.00 0.00 35 1014.5
20260830200507 100 131 0.0 0.0 0.00 0.00 0.00 36 1014.4
20260830200006 100 231 1.0 1.0 0.00 0.00 0.00 36 1014.5
20260830195502 100 190 1.0 1.0 0.00 0.00 0.00 36 1014.5
20260830194959 101 193 1.0 1.0 0.00 0.00 0.00 35 1014.5
20260830194458 100 191 0.0 0.0 0.00 0.00 0.00 36 1014.5
20260830193954 100 194 0.0 0.0 0.00 0.00 0.00 35 1014.8
20260830193452 101 177 0.0 1.0 0.00 0.00 0.00 35 1014.7
20260830192948 100 233 0.0 0.0 0.00 0.00 0.00 36 1014.9
20260830192443 100 176 1.0 2.0 0.00 0.00 0.00 36 1014.9
20260830191938 100 250 0.0 0.0 0.00 0.00 0.00 36 1015.1
20260830191437 99 164 0.0 1.0 0.00 0.00 0.00 37 1015.1
20260830190928 99 185 0.0 0.0 0.00 0.00 0.00 37 1015.2
20260830190423 100 186 1.0 2.0 0.00 0.00 0.00 37 1015.2
20260830185922 100 195 0.0 0.0 0.00 0.00 0.00 37 1015.3
20260830185417 100 252 1.0 1.0 0.00 0.00 0.00 37 1015.4
20260830184912 100 204 1.0 1.0 0.00 0.00 0.00 37 1015.4
20260830184411 100 197 1.0 1.0 0.00 0.00 0.00 37 1015.4
20260830183906 100 245 1.0 2.0 0.00 0.00 0.00 38 1015.4
20260830183405 99 263 1.0 2.0 0.00 0.00 0.00 38 1015.6
20260830182901 100 228 0.0 0.0 0.00 0.00 0.00 38 1015.6
20260830182357 99 219 1.0 1.0 0.00 0.00 0.00 38 1015.7
20260830181853 99 198 0.0 0.0 0.00 0.00 0.00 38 1016.0
20260830181349 100 214 1.0 2.0 0.00 0.00 0.00 39 1015.7
20260830180848 100 211 0.0 0.0 0.00 0.00 0.00 39 1015.7
20260830180343 99 205 0.0 0.0 0.00 0.00 0.00 40 1015.9
20260830175842 99 201 0.0 0.0 0.00 0.00 0.00 41 1016.1
20260830175337 98 194 0.0 0.0 0.00 0.00 0.00 41 1016.4
20260830174832 99 182 1.0 2.0 0.00 0.00 0.00 40 1016.3
20260830174328 98 206 1.0 2.0 0.00 0.00 0.00 42 1016.5
20260830173827 98 188 0.0 1.0 0.00 0.00 0.00 42 1016.5
20260830173323 98 207 0.0 0.0 0.00 0.00 0.00 42 1016.5
20260830172819 98 200 0.0 1.0 0.00 0.00 0.00 41 1016.7
20260830172315 98 188 0.0 1.0 0.00 0.00 0.00 42 1016.6
20260830171810 98 176 0.0 1.0 0.00 0.00 0.00 43 1016.7
20260830171306 98 201 1.0 1.0 0.00 0.00 0.00 41 1017.0
20260830170800 98 193 0.0 0.0 0.00 0.00 0.00 42 1016.8
20260830170300 97 180 1.0 2.0 0.00 0.00 0.00 43 1016.9
20260830165758 97 186 0.0 1.0 0.00 0.00 0.00 44 1016.9
20260830165255 97 217 0.0 0.0 0.00 0.00 0.00 45 1017.0
20260830164751 97 187 0.0 1.0 0.00 0.00 0.00 45 1017.1
20260830164246 97 219 1.0 1.0 0.00 0.00 0.00 44 1017.2
20260830163737 96 192 0.0 0.0 0.00 0.00 0.00 47 1017.2
20260830163233 96 177 1.0 2.0 0.00 0.00 0.00 47 1017.3
20260830162727 96 197 1.0 1.0 0.00 0.00 0.00 47 1017.4
20260830162224 96 178 0.0 1.0 0.00 0.00 0.00 47 1017.3
20260830161719 95 200 0.0 1.0 0.00 0.00 0.00 48 1017.5
20260830161219 94 206 0.0 0.0 0.00 0.00 0.00 49 1017.4
20260830160715 94 244 1.0 1.0 0.00 0.00 0.00 50 1017.4
20260830160214 93 161 1.0 1.0 0.00 0.00 0.00 50 1017.2
20260830155711 93 188 0.0 1.0 0.00 0.00 0.00 53 1017.5
20260830155207 92 207 0.0 0.0 0.00 0.00 0.00 54 1017.4
20260830154656 91 180 0.0 0.0 0.00 0.00 0.00 55 1017.3
20260830154152 91 188 1.0 1.0 0.00 0.00 0.00 56 1017.4
20260830153649 91 190 0.0 0.0 0.00 0.00 0.00 57 1017.5
20260830153148 90 199 0.0 0.0 0.00 0.00 0.00 59 1017.3
20260830152646 89 213 0.0 0.0 0.00 0.00 0.00 60 1017.4
20260830152141 89 206 0.0 0.0 0.00 0.00 0.00 60 1017.3
20260830151636 89 258 0.0 0.0 0.00 0.00 0.00 61 1017.4
20260830151135 88 195 0.0 0.0 0.00 0.00 0.00 63 1017.5
20260830150630 88 185 0.0 0.0 0.00 0.00 0.00 63 1017.5
20260830150125 87 198 0.0 0.0 0.00 0.00 0.00 63 1017.3
20260830145624 87 225 0.0 0.0 0.00 0.00 0.00 64 1017.4
20260830145120 86 199 0.0 0.0 0.00 0.00 0.00 65 1017.3
20260830144615 86 186 0.0 0.0 0.00 0.00 0.00 65 1017.3
20260830144111 86 213 0.0 0.0 0.00 0.00 0.00 66 1017.4
20260830143607 86 202 0.0 0.0 0.00 0.00 0.00 66 1017.4
20260830143105 86 200 0.0 0.0 0.00 0.00 0.00 67 1017.4
20260830142601 85 220 0.0 0.0 0.00 0.00 0.00 67 1017.4
20260830142055 85 201 0.0 0.0 0.00 0.00 0.00 69 1017.4
20260830141550 84 181 0.0 0.0 0.00 0.00 0.00 70 1017.5
20260830141045 84 190 0.0 0.0 0.00 0.00 0.00 70 1017.6
20260830140545 84 204 0.0 0.0 0.00 0.00 0.00 70 1017.4
20260830140040 83 203 0.0 0.0 0.00 0.00 0.00 71 1017.6
20260830135535 83 194 0.0 0.0 0.00 0.00 0.00 71 1017.7
20260830135030 83 194 0.0 0.0 0.00 0.00 0.00 72 1017.3
20260830134526 82 192 0.0 0.0 0.00 0.00 0.00 72 1017.5
20260830134021 82 210 0.0 0.0 0.00 0.00 0.00 72 1017.3
20260830133517 82 194 0.0 0.0 0.00 0.00 0.00 72 1017.3
20260830133012 81 210 0.0 0.0 0.00 0.00 0.00 73 1017.2
20260830132508 81 202 0.0 0.0 0.00 0.00 0.00 74 1017.1
20260830132003 81 197 0.0 0.0 0.00 0.00 0.00 73 1017.1
20260830131502 80 201 0.0 0.0 0.00 0.00 0.00 74 1017.1
20260830130956 80 212 0.0 0.0 0.00 0.00 0.00 74 1017.2
20260830130452 80 199 0.0 0.0 0.00 0.00 0.00 74 1017.0
20260830125950 80 195 0.0 0.0 0.00 0.00 0.00 74 1017.1
20260830125446 79 203 0.0 0.0 0.00 0.00 0.00 75 1017.2
20260830124944 79 206 0.0 0.0 0.00 0.00 0.00 75 1017.1
20260830124439 79 202 0.0 0.0 0.00 0.00 0.00 75 1016.9
20260830123935 79 202 0.0 0.0 0.00 0.00 0.00 75 1016.9
20260830123432 79 198 0.0 0.0 0.00 0.00 0.00 75 1016.7
20260830122929 78 195 0.0 0.0 0.00 0.00 0.00 75 1016.8
20260830122429 78 197 0.0 0.0 0.00 0.00 0.00 75 1016.6
20260830121924 78 205 0.0 0.0 0.00 0.00 0.00 75 1016.6
20260830121419 78 204 0.0 0.0 0.00 0.00 0.00 75 1016.5
20260830120914 78 201 0.0 0.0 0.00 0.00 0.00 74 1016.4
20260830120410 79 196 0.0 0.0 0.00 0.00 0.00 74 1016.1
20260830115905 79 202 0.0 0.0 0.00 0.00 0.00 73 1016.3
20260830115401 79 202 0.0 0.0 0.00 0.00 0.00 73 1016.1
20260830114857 79 202 0.0 0.0 0.00 0.00 0.00 73 1015.9
20260830114353 79 205 0.0 0.0 0.00 0.00 0.00 72 1016.1
20260830113848 79 203 0.0 0.0 0.00 0.00 0.00 72 1015.9
20260830113343 79 208 0.0 0.0 0.00 0.00 0.00 71 1015.9
20260830112839 79 208 0.0 0.0 0.00 0.00 0.00 71 1015.8
20260830112334 80 200 0.0 0.0 0.00 0.00 0.00 71 1015.7
20260830111830 80 204 0.0 0.0 0.00 0.00 0.00 70 1015.6
20260830111326 80 199 0.0 0.0 0.00 0.00 0.00 70 1015.6
20260830110825 80 199 0.0 0.0 0.00 0.00 0.00 69 1015.7
20260830110322 80 198 0.0 0.0 0.00 0.00 0.00 69 1015.5
20260830105820 80 205 0.0 0.0 0.00 0.00 0.00 69 1015.6
20260830105317 80 199 0.0 0.0 0.00 0.00 0.00 68 1015.5
20260830104813 80 202 0.0 0.0 0.00 0.00 0.00 68 1015.5
20260830104310 81 204 0.0 0.0 0.00 0.00 0.00 67 1015.5
20260830103808 81 202 0.0 0.0 0.00 0.00 0.00 67 1015.4
20260830103305 81 197 0.0 0.0 0.00 0.00 0.00 67 1015.6
20260830102802 81 201 0.0 0.0 0.00 0.00 0.00 66 1015.6
20260830102258 81 192 0.0 0.0 0.00 0.00 0.00 66 1015.5
20260830101754 81 203 0.0 0.0 0.00 0.00 0.00 66 1015.3
20260830101249 81 196 0.0 0.0 0.00 0.00 0.00 66 1015.3
20260830100748 81 196 0.0 0.0 0.00 0.00 0.00 65 1015.5
20260830100243 81 198 0.0 0.0 0.00 0.00 0.00 65 1015.3
20260830095743 81 199 0.0 0.0 0.00 0.00 0.00 65 1015.3
20260830095239 81 199 0.0 0.0 0.00 0.00 0.00 64 1015.3
20260830094734 81 199 0.0 0.0 0.00 0.00 0.00 64 1015.2
20260830094231 81 199 0.0 0.0 0.00 0.00 0.00 63 1015.5
20260830093730 81 201 0.0 0.0 0.00 0.00 0.00 63 1015.4
20260830093227 81 202 0.0 0.0 0.00 0.00 0.00 63 1015.3
20260830092726 81 203 0.0 0.0 0.00 0.00 0.00 63 1015.3
20260830092218 82 203 0.0 0.0 0.00 0.00 0.00 63 1015.3
20260830091713 82 198 0.0 0.0 0.00 0.00 0.00 63 1015.2
20260830091212 82 198 0.0 0.0 0.00 0.00 0.00 62 1015.2
20260830090707 82 198 0.0 0.0 0.00 0.00 0.00 62 1015.2
20260830090203 82 198 0.0 0.0 0.00 0.00 0.00 62 1015.3
20260830085702 82 199 0.0 0.0 0.00 0.00 0.00 60 1015.2
20260830085158 83 199 0.0 0.0 0.00 0.00 0.00 60 1015.4
20260830084653 83 192 0.0 0.0 0.00 0.00 0.00 59 1015.0
20260830084148 83 204 0.0 0.0 0.00 0.00 0.00 60 1015.3
20260830083643 83 207 0.0 0.0 0.00 0.00 0.00 59 1015.4
20260830083138 83 202 0.0 0.0 0.00 0.00 0.00 59 1015.3
20260830082632 83 203 0.0 0.0 0.00 0.00 0.00 58 1015.3
20260830082129 83 204 0.0 0.0 0.00 0.00 0.00 59 1015.2
20260830081624 82 197 0.0 0.0 0.00 0.00 0.00 60 1015.4
20260830081123 82 197 0.0 0.0 0.00 0.00 0.00 59 1015.3
20260830080618 82 201 0.0 0.0 0.00 0.00 0.00 59 1015.4
20260830080114 82 201 0.0 0.0 0.00 0.00 0.00 59 1015.3
20260830075613 82 198 0.0 0.0 0.00 0.00 0.00 60 1015.4
20260830075108 83 198 0.0 0.0 0.00 0.00 0.00 59 1015.2
20260830074604 83 199 0.0 0.0 0.00 0.00 0.00 58 1015.3
20260830074100 83 199 0.0 0.0 0.00 0.00 0.00 57 1015.2
20260830073556 83 201 0.0 0.0 0.00 0.00 0.00 57 1015.2
20260830073055 83 199 0.0 0.0 0.00 0.00 0.00 57 1015.3
20260830072551 83 195 0.0 0.0 0.00 0.00 0.00 57 1015.2
20260830072046 83 195 0.0 0.0 0.00 0.00 0.00 57 1015.2
20260830071542 83 201 0.0 0.0 0.00 0.00 0.00 58 1015.3
20260830071039 83 200 0.0 0.0 0.00 0.00 0.00 58 1015.3
20260830070535 83 190 0.0 0.0 0.00 0.00 0.00 58 1015.5
20260830070034 83 198 0.0 0.0 0.00 0.00 0.00 58 1015.4
20260830065533 83 187 0.0 0.0 0.00 0.00 0.00 57 1015.5
20260830065032 83 199 0.0 0.0 0.00 0.00 0.00 57 1015.2
20260830064532 83 202 0.0 0.0 0.00 0.00 0.00 57 1015.4
20260830064027 83 196 0.0 0.0 0.00 0.00 0.00 58 1015.4
20260830063522 82 189 0.0 0.0 0.00 0.00 0.00 58 1015.4
20260830063022 82 168 0.0 0.0 0.00 0.00 0.00 59 1015.4
20260830062521 82 202 0.0 0.0 0.00 0.00 0.00 59 1015.2
20260830062016 82 208 0.0 0.0 0.00 0.00 0.00 59 1015.3
20260830061510 82 199 0.0 0.0 0.00 0.00 0.00 58 1015.2
20260830061007 83 201 0.0 0.0 0.00 0.00 0.00 59 1015.3
20260830060457 83 201 0.0 0.0 0.00 0.00 0.00 58 1015.2
20260830055953 83 201 0.0 0.0 0.00 0.00 0.00 58 1015.3
20260830055449 83 202 0.0 0.0 0.00 0.00 0.00 57 1015.1
20260830054944 84 202 0.0 0.0 0.00 0.00 0.00 56 1015.1
20260830054439 84 202 0.0 0.0 0.00 0.00 0.00 55 1015.0
20260830053935 84 202 0.0 0.0 0.00 0.00 0.00 54 1015.1
20260830053431 85 202 0.0 0.0 0.00 0.00 0.00 53 1015.0
20260830052929 85 202 0.0 0.0 0.00 0.00 0.00 52 1015.2
20260830052425 85 202 0.0 0.0 0.00 0.00 0.00 51 1015.4
20260830051921 86 202 0.0 0.0 0.00 0.00 0.00 51 1015.2
20260830051416 86 202 0.0 0.0 0.00 0.00 0.00 50 1015.1
20260830050915 86 202 0.0 0.0 0.00 0.00 0.00 50 1015.1
20260830050410 86 201 0.0 0.0 0.00 0.00 0.00 50 1015.2
20260830045909 87 201 0.0 0.0 0.00 0.00 0.00 49 1015.1
20260830045403 87 201 0.0 0.0 0.00 0.00 0.00 49 1015.1
20260830044902 87 197 0.0 0.0 0.00 0.00 0.00 49 1015.3
20260830044358 87 197 0.0 0.0 0.00 0.00 0.00 49 1015.0
20260830043852 87 204 0.0 0.0 0.00 0.00 0.00 49 1015.3
20260830043347 87 210 0.0 0.0 0.00 0.00 0.00 48 1015.1
20260830042845 87 203 0.0 0.0 0.00 0.00 0.00 48 1015.1
20260830042340 88 204 0.0 0.0 0.00 0.00 0.00 48 1015.1
20260830041838 88 204 0.0 0.0 0.00 0.00 0.00 47 1015.1
20260830041332 88 206 0.0 0.0 0.00 0.00 0.00 46 1015.1
20260830040828 88 206 0.0 0.0 0.00 0.00 0.00 46 1015.1
20260830040324 89 210 0.0 0.0 0.00 0.00 0.00 46 1014.9
20260830035823 89 211 0.0 0.0 0.00 0.00 0.00 45 1014.8
20260830035321 89 206 0.0 0.0 0.00 0.00 0.00 45 1015.1
20260830034817 89 211 0.0 0.0 0.00 0.00 0.00 45 1015.0
20260830034312 89 199 0.0 0.0 0.00 0.00 0.00 45 1015.1